< < Back
Terminal Aerodrome Forecast


Current Version              Previous Versions:   1  2  3  4  5  6  7  8  9  

Terminal Aerodrome Forecast

258
FTUS42 KTAE 180500
TAFTLH
TAF
KTLH 180522Z 1806/1906 08008G18KT 6SM -SHRA BKN018
      TEMPO 1806/1810 2SM +RA BKN009
     FM181000 07010G20KT 2SM +RA BR BKN009
     FM181600 06015G25KT 2SM +TSRA BR BKN009CB
     FM190200 03010G20KT 3SM -DZ BR BKN007=



Latest METAR

992
SAUS80 KWBC 190200 RRB
MTRTLH
METAR KTLH 190153Z 36007KT 10SM OVC009 15/13 A2994 RMK AO2 CIG 006V011
SLP136 T01500128 $


USA.gov is the U.S. government's official web portal to all federal, state and local government web resources and services.